Regional Weather Roundup
Issued by NWS

Home | Current Version | Previous Version | Graphics & Text | Print | Product List | Glossary On
Versions: 1 2 3 4 5 6 7 8 9 10 11 12 13 14 15 16 17 18 19 20 21 22 23 24 25 26 27 28 29 30 31 32 33 34 35 36 37 38 39 40 41 42 43 44 45 46 47 48 49 50
000
ASUS43 KLOT 282358
RWRIL

ILLINOIS REGIONAL WEATHER ROUNDUP
NATIONAL WEATHER SERVICE CHICAGO/ROMEOVILLE IL
700 PM CDT THU AUG 28 2014

NOTE: "FAIR" INDICATES FEW OR NO CLOUDS BELOW 12,000 FEET WITH NO
SIGNIFICANT WEATHER AND/OR OBSTRUCTIONS TO VISIBILITY.

* THESE STATIONS ARE NOT UNDER NWS QUALITY CONTROL. THEY ALSO MAY NOT
  REPORT WEATHER SUCH AS PRECIPITATION OR FOG.

ILZ001-002-007-009-015-016-024-290100-
NORTHWEST ILLINOIS

CITY           SKY/WX    TMP DP  RH WIND       PRES   REMARKS
MOLINE         LGT RAIN  69  67  93 E12       29.97F
6HR MIN TEMP:  68; 6HR MAX TEMP:  72; 6HR PCP:  1.93;

$$

ILZ003-004-008-010-011-017-018-290100-
NORTH CENTRAL ILLINOIS

CITY           SKY/WX    TMP DP  RH WIND       PRES   REMARKS
ROCKFORD       NOT AVBL
$$

ILZ005-006-012>014-019>023-290100-
NORTHEAST ILLINOIS

CITY           SKY/WX    TMP DP  RH WIND       PRES   REMARKS
CHICAGO-OHARE  CLOUDY    71  57  61 NE8       30.05F
6HR MIN TEMP:  71; 6HR MAX TEMP:  77;

CHICAGO-MIDWAY MOCLDY    74  63  68 NE9       30.05F
6HR MIN TEMP:  73; 6HR MAX TEMP:  77;

AURORA         LGT RAIN  70  61  73 NE7       30.04F
6HR MIN TEMP:  70; 6HR MAX TEMP:  82; 6HR PCP: TRACE;

WAUKEGAN       CLOUDY    67  60  78 E7        30.05F
6HR MIN TEMP:  67; 6HR MAX TEMP:  72; 6HR PCP: TRACE;

DUPAGE AIRPORT LGT RAIN  70  60  70 E8        30.05F
6HR MIN TEMP:  70; 6HR MAX TEMP:  81; 6HR PCP: TRACE;

WHEELING       CLOUDY    71  60  68 E5        30.07F
6HR MIN TEMP:  70; 6HR MAX TEMP:  76;

NORTHERLY ISL    N/A     71  63  75 NE7         N/A
$$

LMZ740>746-290100-
SOUTHERN LAKE MICHIGAN

STATION/POSITION SKY/WX   TEMP    WIND        PRES    VSBY  WAVE
                          AIR SEA DIR/SP/G                  HT/PER
                          (F)     (DEG/KT/KT) (MB)    (MI)  (FT/S)
SOUTHERN BUOY              69 69   60/ 10/ 12 1018.4F
WAUKEGAN HARBOR            69      70/  7/  9   N/A
HARRISON CRIB              70      60/  9/ 10   N/A
BURNHAM HARBOR             71      30/  5/ 10   N/A
CALUMET HARBOR             71      30/  5/  8 1016.5F
MICHIGAN CITY              71      20/ 11/ 13   N/A
MICHIGAN CITY 6N           72 73   50/ 10/ 12   N/A           2/ 3
ST. JOSEPH                 72 72   20/  8/ 10   N/A           2/ 3
$$

ILZ025>027-034>036-040-047-049-050-058-095>099-290100-
WEST-CENTRAL ILLINOIS

CITY           SKY/WX    TMP DP  RH WIND       PRES   REMARKS
QUINCY         LGT RAIN  75  71  87 E6        29.95F
$$

ILZ028>032-037-038-041>044-048-051>054-059>061-290100-
CENTRAL ILLINOIS

CITY           SKY/WX    TMP DP  RH WIND       PRES   REMARKS
PEORIA         TSTM      71  68  90 CALM      30.00R VSB 3/4
SPRINGFIELD    MOCLDY    84  74  71 E7        29.97R HX  91
6HR MIN TEMP:  84; 6HR MAX TEMP:  88;

TAYLORVILLE    NOT AVBL
$$

ILZ033-039-045-046-055>057-062-063-290100-
EAST-CENTRAL ILLINOIS

CITY           SKY/WX    TMP DP  RH WIND       PRES   REMARKS
$$

ILZ079-100>102-290100-
SOUTHWEST ILLINOIS

CITY           SKY/WX    TMP DP  RH WIND       PRES   REMARKS
BELLEVILLE     TSTM      73  73 100 NE10      29.97S VSB 1
$$

ILZ064>066-069>071-074>076-080>082-084>086-088>090-092>094-290100-
SOUTH-CENTRAL ILLINOIS

CITY           SKY/WX    TMP DP  RH WIND       PRES   REMARKS
CARBONDALE     CLOUDY    75  70  84 SE3       29.98F
6HR MIN TEMP:  75; 6HR MAX TEMP:  89; 6HR PCP:  0.02;

$$

ILZ067-068-072-073-078-083-087-091-290100-
SOUTHEAST ILLINOIS

CITY           SKY/WX    TMP DP  RH WIND       PRES   REMARKS
LAWRENCEVILLE  MOCLDY    83  74  74 E5        29.99S HX  89
$$

ABBREVIATIONS USED IN REMARKS
   TC - TEMPERATURE IN CELSIUS
  WCI - WIND CHILL INDEX
   HX - HEAT INDEX
  VSB - VISIBILITY
$$



USA.gov is the U.S. government's official web portal to all federal, state and local government web resources and services.